Regional Weather Roundup
Issued by NWS

Home | Current Version | Previous Version | Text Only | Print | Product List | Glossary On
Versions: 1 2 3 4 5 6 7 8 9 10 11 12 13 14 15 16 17 18 19 20 21 22 23 24 25 26 27 28 29 30 31 32 33 34 35 36 37 38 39 40 41 42 43 44 45 46 47 48 49 50
712
ASUS44 KJAN 202003
RWRMS

MISSISSIPPI HOURLY WEATHER ROUNDUP
NATIONAL WEATHER SERVICE JACKSON MS
300 PM CDT MON APR 20 2015

NOTE: "FAIR: INDICATES FEW OR NO CLOUDS BELOW 12,000 FEET WITH NO
SIGNIFICANT WEATHER AND/OR OBSTRUCTIONS TO VISIBILITY.

MSZ001>002-007>008-010>013-018>021-025>028-034>036-202100-
NORTHWEST MISSISSIPPI

CITY           SKY/WX    TMP DP  RH WIND       PRES   REMARKS
CLARKSDALE     FAIR      64  46  52 W14G20    29.88S
CLEVELAND      FAIR      66  44  44 W7G23     29.89S
GREENWOOD      PTSUNNY   67  44  43 NW10G23   29.88S
GREENVILLE     SUNNY     68  43  40 NW15G23   29.89S
OLIVE BRANCH   PTSUNNY   63  41  45 NW15G23   29.85R
OXFORD         FAIR      64  39  39 W12G24    29.87S
TUNICA         PTCLDY    64  45  48 W14G21    29.87S
$$

MSZ003>006-009-014>017-022>024-029>033-037>039-202100-
NORTHEAST MISSISSIPPI

CITY           SKY/WX    TMP DP  RH WIND       PRES   REMARKS
COLUMBUS AFB   MOSUNNY   68  50  52 W13       29.82F
CORINTH        MOCLDY    63  45  51 W13G18    29.81S
GOLDN TRIANGLE PTSUNNY   68  48  49 W7G17     29.83F
STARKVILLE     MOCLDY    64  50  59 NW10      29.84S
TUPELO         PTSUNNY   67  44  43 NW13G23   29.83S
$$

MSZ040-058-202100-
CENTRAL MISSISSIPPI

CITY           SKY/WX    TMP DP  RH WIND       PRES   REMARKS
JACKSON INTL   PTSUNNY   69  47  45 NW15G21   29.87F
JACKSON HAWKNS PTSUNNY   69  47  45 W12G20    29.88F
MERIDIAN KEY   MOSUNNY   71  48  43 NW10G22   29.83S
MERIDIAN NAS   MOSUNNY   73  47  39 W16G23    29.83F
RAYMOND        FAIR      68  64  88 NW13G18   29.88F
VICKSBURG      SUNNY     70  45  40 NW10      29.90F
$$

MSZ059>079-202100-
SOUTH MISSISSIPPI

CITY           SKY/WX    TMP DP  RH WIND       PRES   REMARKS
BROOKHAVEN     FAIR      70  54  56 W3        29.90S
HATTIESBURG    MOSUNNY   77  54  44 W13       29.83F
MCCOMB         SUNNY     72  51  47 W15G22    29.87F
NATCHEZ        SUNNY     70  45  40 NW14      29.91F
PINE BELT      MOSUNNY   73  52  46 W10G18    29.85S
$$

MSZ080>082-202100-
COASTAL MISSISSIPPI

CITY           SKY/WX    TMP DP  RH WIND       PRES   REMARKS
BAY ST LOUIS   SUNNY     79  50  36 MISG      29.83S
BILOXI         MOSUNNY   81  57  44 VRB2      29.80F
PASCAGOULA     MOSUNNY   80  60  50 VRB5      29.80F
GULFPORT       MOSUNNY   79  52  38 W9G18     29.81S
$$



USA.gov is the U.S. government's official web portal to all federal, state and local government web resources and services.